| time (UTC) | temp F | wind direction | speed MPH | gust MPH | rain 1hr in | rain 24hr in | rain mn in | humidity % | barometer mb |
| 20260831230928 | 83 | 149 | 0.0 | 0.0 | 0.00 | 0.07 | 0.07 | 84 | 1020.6 |
| 20260831230422 | 83 | 137 | 0.0 | 0.0 | 0.00 | 0.07 | 0.07 | 84 | 1020.4 |
| 20260831225917 | 83 | 138 | 0.0 | 0.0 | 0.00 | 0.07 | 0.07 | 83 | 1020.4 |
| 20260831225413 | 83 | 151 | 0.0 | 0.0 | 0.00 | 0.07 | 0.07 | 82 | 1020.6 |
| 20260831224907 | 83 | 149 | 0.0 | 0.0 | 0.00 | 0.07 | 0.07 | 82 | 1020.5 |
| 20260831224402 | 84 | 125 | 0.0 | 1.0 | 0.00 | 0.07 | 0.07 | 81 | 1020.7 |
| 20260831223856 | 84 | 145 | 2.0 | 2.0 | 0.00 | 0.07 | 0.07 | 80 | 1020.5 |
| 20260831223352 | 85 | 130 | 0.0 | 0.0 | 0.00 | 0.07 | 0.07 | 78 | 1020.5 |
| 20260831222849 | 86 | 60 | 5.0 | 9.0 | 0.00 | 0.07 | 0.07 | 77 | 1020.5 |
| 20260831222344 | 86 | 131 | 1.0 | 1.0 | 0.00 | 0.07 | 0.07 | 77 | 1020.6 |
| 20260831221839 | 85 | 145 | 1.0 | 2.0 | 0.00 | 0.07 | 0.07 | 78 | 1020.4 |
| 20260831221335 | 86 | 121 | 1.0 | 1.0 | 0.00 | 0.07 | 0.07 | 78 | 1020.5 |
| 20260831220830 | 85 | 119 | 3.0 | 3.0 | 0.00 | 0.07 | 0.07 | 78 | 1020.5 |
| 20260831220325 | 85 | 131 | 1.0 | 1.0 | 0.00 | 0.07 | 0.07 | 80 | 1020.6 |
| 20260831215820 | 85 | 145 | 0.0 | 1.0 | 0.00 | 0.07 | 0.07 | 81 | 1020.5 |
| 20260831215316 | 86 | 138 | 1.0 | 1.0 | 0.00 | 0.07 | 0.07 | 79 | 1020.6 |
| 20260831214812 | 86 | 147 | 0.0 | 1.0 | 0.00 | 0.07 | 0.07 | 78 | 1020.9 |
| 20260831214310 | 86 | 93 | 1.0 | 3.0 | 0.00 | 0.07 | 0.07 | 78 | 1020.6 |
| 20260831213805 | 86 | 156 | 2.0 | 2.0 | 0.00 | 0.07 | 0.07 | 77 | 1020.7 |
| 20260831213301 | 86 | 129 | 1.0 | 1.0 | 0.00 | 0.07 | 0.07 | 78 | 1020.7 |
| 20260831212756 | 87 | 60 | 5.0 | 6.0 | 0.00 | 0.07 | 0.07 | 77 | 1020.1 |
| 20260831212253 | 88 | 161 | 1.0 | 1.0 | 0.00 | 0.07 | 0.07 | 77 | 1020.5 |
| 20260831211751 | 88 | 148 | 1.0 | 2.0 | 0.00 | 0.07 | 0.07 | 77 | 1020.4 |
| 20260831211246 | 88 | 128 | 1.0 | 2.0 | 0.00 | 0.07 | 0.07 | 77 | 1020.6 |
| 20260831210740 | 87 | 109 | 2.0 | 3.0 | 0.00 | 0.07 | 0.07 | 78 | 1020.4 |
| 20260831210236 | 86 | 127 | 1.0 | 2.0 | 0.00 | 0.07 | 0.07 | 79 | 1020.4 |
| 20260831205735 | 86 | 122 | 0.0 | 1.0 | 0.00 | 0.07 | 0.07 | 80 | 1020.7 |
| 20260831205232 | 86 | 81 | 2.0 | 2.0 | 0.00 | 0.07 | 0.07 | 80 | 1020.6 |
| 20260831204726 | 85 | 134 | 0.0 | 1.0 | 0.00 | 0.07 | 0.07 | 82 | 1020.8 |
| 20260831204226 | 84 | 147 | 1.0 | 1.0 | 0.00 | 0.07 | 0.07 | 83 | 1020.7 |
| 20260831203725 | 84 | 102 | 3.0 | 5.0 | 0.00 | 0.07 | 0.07 | 83 | 1020.9 |
| 20260831203225 | 84 | 156 | 1.0 | 1.0 | 0.00 | 0.07 | 0.07 | 84 | 1020.8 |
| 20260831202723 | 84 | 133 | 2.0 | 3.0 | 0.00 | 0.07 | 0.07 | 83 | 1020.9 |
| 20260831202218 | 84 | 113 | 1.0 | 1.0 | 0.00 | 0.07 | 0.07 | 83 | 1020.7 |
| 20260831201713 | 84 | 135 | 1.0 | 1.0 | 0.00 | 0.07 | 0.07 | 83 | 1020.7 |
| 20260831201212 | 85 | 88 | 1.0 | 1.0 | 0.00 | 0.07 | 0.07 | 83 | 1020.9 |
| 20260831200708 | 85 | 145 | 1.0 | 1.0 | 0.00 | 0.07 | 0.07 | 82 | 1020.8 |
| 20260831200203 | 87 | 141 | 2.0 | 2.0 | 0.00 | 0.07 | 0.07 | 80 | 1020.9 |
| 20260831195658 | 87 | 143 | 0.0 | 1.0 | 0.00 | 0.07 | 0.07 | 79 | 1020.7 |
| 20260831195154 | 87 | 135 | 1.0 | 1.0 | 0.00 | 0.07 | 0.07 | 78 | 1020.6 |
| 20260831194648 | 87 | 112 | 1.0 | 2.0 | 0.00 | 0.07 | 0.07 | 78 | 1020.5 |
| 20260831194144 | 89 | 110 | 1.0 | 2.0 | 0.00 | 0.07 | 0.07 | 77 | 1020.6 |
| 20260831193638 | 89 | 100 | 5.0 | 7.0 | 0.00 | 0.07 | 0.07 | 75 | 1020.6 |
| 20260831193133 | 91 | 143 | 2.0 | 3.0 | 0.00 | 0.07 | 0.07 | 74 | 1021.0 |
| 20260831192628 | 91 | 116 | 2.0 | 3.0 | 0.00 | 0.07 | 0.07 | 72 | 1020.5 |
| 20260831192124 | 90 | 105 | 2.0 | 2.0 | 0.00 | 0.07 | 0.07 | 75 | 1020.5 |
| 20260831191620 | 91 | 139 | 2.0 | 3.0 | 0.00 | 0.07 | 0.07 | 74 | 1020.7 |
| 20260831191115 | 91 | 173 | 1.0 | 1.0 | 0.00 | 0.07 | 0.07 | 75 | 1020.5 |
| 20260831190610 | 91 | 118 | 2.0 | 6.0 | 0.00 | 0.07 | 0.07 | 74 | 1020.7 |
| 20260831190109 | 91 | 18 | 1.0 | 2.0 | 0.00 | 0.07 | 0.07 | 75 | 1020.8 |
| 20260831185605 | 91 | 130 | 1.0 | 1.0 | 0.00 | 0.07 | 0.07 | 74 | 1020.6 |
| 20260831185100 | 91 | 97 | 0.0 | 0.0 | 0.00 | 0.07 | 0.07 | 74 | 1020.8 |
| 20260831184554 | 91 | 135 | 3.0 | 5.0 | 0.00 | 0.07 | 0.07 | 71 | 1020.7 |
| 20260831184049 | 91 | 91 | 2.0 | 3.0 | 0.00 | 0.07 | 0.07 | 73 | 1020.7 |
| 20260831183548 | 91 | 59 | 2.0 | 2.0 | 0.00 | 0.07 | 0.07 | 74 | 1020.7 |
| 20260831183043 | 91 | 102 | 3.0 | 5.0 | 0.00 | 0.07 | 0.07 | 72 | 1020.7 |
| 20260831182543 | 91 | 95 | 2.0 | 2.0 | 0.00 | 0.07 | 0.07 | 73 | 1020.9 |
| 20260831182038 | 91 | 139 | 1.0 | 2.0 | 0.00 | 0.07 | 0.07 | 73 | 1021.0 |
| 20260831181533 | 90 | 337 | 3.0 | 7.0 | 0.00 | 0.07 | 0.07 | 73 | 1021.0 |
| 20260831181032 | 91 | 57 | 3.0 | 3.0 | 0.00 | 0.07 | 0.07 | 73 | 1021.2 |
| 20260831180527 | 91 | 158 | 1.0 | 1.0 | 0.00 | 0.07 | 0.07 | 73 | 1021.2 |
| 20260831180022 | 90 | 149 | 2.0 | 3.0 | 0.00 | 0.07 | 0.07 | 74 | 1021.3 |
| 20260831175518 | 90 | 117 | 2.0 | 2.0 | 0.00 | 0.07 | 0.07 | 74 | 1021.1 |
| 20260831175015 | 89 | 149 | 1.0 | 2.0 | 0.00 | 0.07 | 0.07 | 74 | 1021.2 |
| 20260831174514 | 89 | 76 | 2.0 | 2.0 | 0.00 | 0.07 | 0.07 | 74 | 1021.6 |
| 20260831174009 | 89 | 150 | 3.0 | 3.0 | 0.00 | 0.07 | 0.07 | 74 | 1021.3 |
| 20260831173507 | 90 | 158 | 1.0 | 1.0 | 0.00 | 0.07 | 0.07 | 72 | 1021.4 |
| 20260831173004 | 91 | 102 | 0.0 | 1.0 | 0.00 | 0.07 | 0.07 | 72 | 1021.3 |
| 20260831172459 | 91 | 91 | 1.0 | 2.0 | 0.00 | 0.07 | 0.07 | 72 | 1021.5 |
| 20260831171954 | 91 | 130 | 1.0 | 1.0 | 0.00 | 0.07 | 0.07 | 73 | 1021.6 |
| 20260831171449 | 91 | 127 | 2.0 | 3.0 | 0.00 | 0.07 | 0.07 | 70 | 1021.6 |
| 20260831170946 | 89 | 127 | 1.0 | 1.0 | 0.00 | 0.07 | 0.07 | 72 | 1021.9 |
| 20260831170442 | 89 | 80 | 2.0 | 3.0 | 0.00 | 0.07 | 0.07 | 74 | 1021.8 |
| 20260831165938 | 88 | 135 | 1.0 | 1.0 | 0.00 | 0.07 | 0.07 | 75 | 1022.1 |
| 20260831165428 | 88 | 32 | 3.0 | 5.0 | 0.00 | 0.07 | 0.07 | 74 | 1021.8 |
| 20260831164925 | 87 | 141 | 1.0 | 1.0 | 0.00 | 0.07 | 0.07 | 76 | 1021.9 |
| 20260831164420 | 89 | 153 | 1.0 | 1.0 | 0.00 | 0.07 | 0.07 | 75 | 1021.9 |
| 20260831163915 | 88 | 81 | 1.0 | 1.0 | 0.00 | 0.07 | 0.07 | 75 | 1022.0 |
| 20260831163411 | 88 | 141 | 0.0 | 0.0 | 0.00 | 0.07 | 0.07 | 75 | 1021.9 |
| 20260831162909 | 87 | 147 | 1.0 | 1.0 | 0.00 | 0.07 | 0.07 | 77 | 1022.2 |
| 20260831162405 | 87 | 99 | 1.0 | 2.0 | 0.00 | 0.07 | 0.07 | 76 | 1022.5 |
| 20260831161903 | 87 | 155 | 1.0 | 2.0 | 0.00 | 0.07 | 0.07 | 78 | 1022.2 |
| 20260831161400 | 87 | 122 | 1.0 | 1.0 | 0.00 | 0.07 | 0.07 | 78 | 1022.3 |
| 20260831160855 | 87 | 146 | 0.0 | 0.0 | 0.00 | 0.07 | 0.07 | 80 | 1022.4 |
| 20260831160349 | 84 | 125 | 1.0 | 3.0 | 0.00 | 0.07 | 0.07 | 85 | 1022.3 |
| 20260831155845 | 84 | 165 | 0.0 | 0.0 | 0.00 | 0.07 | 0.07 | 88 | 1022.4 |
| 20260831155344 | 84 | 168 | 0.0 | 0.0 | 0.00 | 0.07 | 0.07 | 88 | 1022.7 |
| 20260831154840 | 83 | 157 | 0.0 | 0.0 | 0.00 | 0.07 | 0.07 | 88 | 1022.8 |
| 20260831154337 | 83 | 189 | 1.0 | 2.0 | 0.00 | 0.07 | 0.07 | 88 | 1022.6 |
| 20260831153835 | 83 | 151 | 2.0 | 2.0 | 0.00 | 0.07 | 0.07 | 87 | 1022.8 |
| 20260831153331 | 83 | 180 | 1.0 | 2.0 | 0.05 | 0.07 | 0.07 | 87 | 1022.7 |
| 20260831152827 | 83 | 149 | 1.0 | 1.0 | 0.24 | 0.07 | 0.07 | 86 | 1022.8 |
| 20260831152322 | 85 | 148 | 0.0 | 1.0 | 0.31 | 0.06 | 0.06 | 85 | 1022.7 |
| 20260831151817 | 85 | 142 | 0.0 | 0.0 | 0.17 | 0.03 | 0.03 | 82 | 1022.4 |
| 20260831151316 | 86 | 160 | 0.0 | 0.0 | 0.00 | 0.00 | 0.00 | 80 | 1022.8 |
| 20260831150812 | 86 | 151 | 1.0 | 2.0 | 0.00 | 0.00 | 0.00 | 78 | 1022.6 |
| 20260831150307 | 87 | 148 | 0.0 | 1.0 | 0.00 | 0.00 | 0.00 | 79 | 1022.6 |
| 20260831145806 | 87 | 146 | 0.0 | 0.0 | 0.00 | 0.00 | 0.00 | 78 | 1022.4 |
| 20260831145306 | 87 | 148 | 0.0 | 0.0 | 0.00 | 0.00 | 0.00 | 76 | 1022.4 |
| 20260831144758 | 88 | 141 | 0.0 | 0.0 | 0.00 | 0.00 | 0.00 | 75 | 1022.4 |
| 20260831144254 | 89 | 111 | 1.0 | 1.0 | 0.00 | 0.00 | 0.00 | 75 | 1022.4 |
| 20260831143754 | 88 | 151 | 0.0 | 1.0 | 0.00 | 0.00 | 0.00 | 77 | 1022.2 |
| 20260831143249 | 88 | 160 | 1.0 | 1.0 | 0.00 | 0.00 | 0.00 | 77 | 1022.0 |
| 20260831142744 | 86 | 165 | 0.0 | 0.0 | 0.00 | 0.00 | 0.00 | 79 | 1022.0 |
| 20260831142239 | 86 | 160 | 0.0 | 0.0 | 0.00 | 0.00 | 0.00 | 79 | 1022.0 |
| 20260831141734 | 85 | 151 | 0.0 | 0.0 | 0.00 | 0.00 | 0.00 | 80 | 1022.1 |
| 20260831141229 | 85 | 147 | 0.0 | 0.0 | 0.00 | 0.00 | 0.00 | 81 | 1022.1 |
| 20260831140729 | 85 | 153 | 0.0 | 0.0 | 0.00 | 0.00 | 0.00 | 81 | 1022.2 |
| 20260831140223 | 85 | 164 | 0.0 | 1.0 | 0.00 | 0.00 | 0.00 | 80 | 1022.0 |
| 20260831135721 | 85 | 151 | 0.0 | 0.0 | 0.00 | 0.00 | 0.00 | 80 | 1021.6 |
| 20260831135217 | 85 | 124 | 0.0 | 1.0 | 0.00 | 0.00 | 0.00 | 82 | 1021.9 |
| 20260831134712 | 85 | 143 | 0.0 | 1.0 | 0.00 | 0.00 | 0.00 | 82 | 1021.8 |
| 20260831134209 | 84 | 138 | 0.0 | 0.0 | 0.00 | 0.00 | 0.00 | 84 | 1021.6 |
| 20260831133707 | 85 | 155 | 0.0 | 0.0 | 0.00 | 0.00 | 0.00 | 82 | 1021.6 |
| 20260831133202 | 86 | 161 | 0.0 | 0.0 | 0.00 | 0.00 | 0.00 | 81 | 1021.8 |
| 20260831132657 | 85 | 145 | 0.0 | 1.0 | 0.00 | 0.00 | 0.00 | 83 | 1021.6 |
| 20260831132157 | 85 | 147 | 0.0 | 0.0 | 0.00 | 0.00 | 0.00 | 82 | 1021.6 |
| 20260831131651 | 86 | 143 | 0.0 | 0.0 | 0.00 | 0.00 | 0.00 | 82 | 1021.7 |
| 20260831131148 | 85 | 148 | 0.0 | 0.0 | 0.00 | 0.00 | 0.00 | 83 | 1021.5 |
| 20260831130643 | 85 | 153 | 0.0 | 0.0 | 0.00 | 0.00 | 0.00 | 83 | 1021.6 |
| 20260831130139 | 85 | 148 | 0.0 | 0.0 | 0.00 | 0.00 | 0.00 | 82 | 1021.6 |
| 20260831125637 | 85 | 130 | 1.0 | 2.0 | 0.00 | 0.00 | 0.00 | 84 | 1021.7 |
| 20260831125133 | 84 | 150 | 0.0 | 0.0 | 0.00 | 0.00 | 0.00 | 85 | 1021.4 |
| 20260831124628 | 83 | 146 | 0.0 | 0.0 | 0.00 | 0.00 | 0.00 | 88 | 1021.2 |
| 20260831124125 | 81 | 117 | 0.0 | 1.0 | 0.00 | 0.00 | 0.00 | 91 | 1021.2 |
| 20260831123624 | 80 | 143 | 0.0 | 0.0 | 0.00 | 0.00 | 0.00 | 93 | 1021.3 |
| 20260831123123 | 80 | 150 | 0.0 | 0.0 | 0.00 | 0.00 | 0.00 | 95 | 1021.2 |
| 20260831122622 | 80 | 147 | 0.0 | 0.0 | 0.00 | 0.00 | 0.00 | 95 | 1021.4 |
| 20260831122119 | 79 | 141 | 0.0 | 0.0 | 0.00 | 0.00 | 0.00 | 96 | 1021.2 |
| 20260831121618 | 78 | 172 | 0.0 | 0.0 | 0.00 | 0.00 | 0.00 | 96 | 1021.3 |
| 20260831121115 | 78 | 163 | 0.0 | 0.0 | 0.00 | 0.00 | 0.00 | 96 | 1021.1 |
| 20260831120614 | 77 | 163 | 0.0 | 0.0 | 0.00 | 0.00 | 0.00 | 96 | 1021.2 |
| 20260831120109 | 76 | 164 | 0.0 | 0.0 | 0.00 | 0.00 | 0.00 | 96 | 1021.0 |
| 20260831115605 | 75 | 165 | 0.0 | 0.0 | 0.00 | 0.00 | 0.00 | 96 | 1021.1 |
| 20260831115101 | 75 | 165 | 0.0 | 0.0 | 0.00 | 0.00 | 0.00 | 96 | 1020.9 |
| 20260831114559 | 75 | 164 | 0.0 | 0.0 | 0.00 | 0.00 | 0.00 | 96 | 1021.1 |
| 20260831114054 | 75 | 164 | 0.0 | 0.0 | 0.00 | 0.00 | 0.00 | 96 | 1021.0 |
| 20260831113553 | 75 | 164 | 0.0 | 0.0 | 0.00 | 0.00 | 0.00 | 96 | 1020.9 |
| 20260831113050 | 75 | 164 | 0.0 | 0.0 | 0.00 | 0.00 | 0.00 | 96 | 1020.7 |
| 20260831112548 | 75 | 164 | 0.0 | 0.0 | 0.00 | 0.00 | 0.00 | 96 | 1020.6 |
| 20260831112044 | 75 | 164 | 0.0 | 0.0 | 0.00 | 0.00 | 0.00 | 96 | 1020.7 |
| 20260831111540 | 75 | 164 | 0.0 | 0.0 | 0.00 | 0.00 | 0.00 | 96 | 1020.8 |
| 20260831111036 | 75 | 164 | 0.0 | 0.0 | 0.00 | 0.00 | 0.00 | 96 | 1020.5 |
| 20260831110531 | 75 | 164 | 0.0 | 0.0 | 0.00 | 0.00 | 0.00 | 96 | 1020.5 |
| 20260831110026 | 75 | 164 | 0.0 | 0.0 | 0.00 | 0.00 | 0.00 | 96 | 1020.5 |
| 20260831105520 | 75 | 164 | 0.0 | 0.0 | 0.00 | 0.00 | 0.00 | 96 | 1020.5 |
| 20260831105015 | 75 | 164 | 0.0 | 0.0 | 0.00 | 0.00 | 0.00 | 96 | 1020.3 |
| 20260831104511 | 75 | 164 | 0.0 | 0.0 | 0.00 | 0.00 | 0.00 | 96 | 1020.0 |
| 20260831104007 | 75 | 164 | 0.0 | 0.0 | 0.00 | 0.00 | 0.00 | 96 | 1020.3 |
| 20260831103506 | 75 | 164 | 0.0 | 0.0 | 0.00 | 0.00 | 0.00 | 96 | 1020.3 |
| 20260831103002 | 75 | 165 | 0.0 | 0.0 | 0.00 | 0.00 | 0.00 | 96 | 1020.2 |
| 20260831102456 | 75 | 164 | 0.0 | 0.0 | 0.00 | 0.00 | 0.00 | 96 | 1019.9 |
| 20260831101951 | 75 | 164 | 0.0 | 0.0 | 0.00 | 0.00 | 0.00 | 96 | 1020.1 |
| 20260831101446 | 75 | 164 | 0.0 | 0.0 | 0.00 | 0.00 | 0.00 | 96 | 1020.1 |
| 20260831100943 | 75 | 164 | 0.0 | 0.0 | 0.00 | 0.00 | 0.00 | 96 | 1020.1 |
| 20260831100438 | 75 | 164 | 0.0 | 0.0 | 0.00 | 0.00 | 0.00 | 96 | 1020.2 |
| 20260831095933 | 75 | 164 | 0.0 | 0.0 | 0.00 | 0.00 | 0.00 | 96 | 1020.2 |
| 20260831095432 | 75 | 164 | 0.0 | 0.0 | 0.00 | 0.00 | 0.00 | 96 | 1020.2 |
| 20260831094927 | 75 | 164 | 0.0 | 0.0 | 0.00 | 0.00 | 0.00 | 96 | 1020.3 |
| 20260831094424 | 75 | 164 | 0.0 | 0.0 | 0.00 | 0.00 | 0.00 | 96 | 1020.5 |
| 20260831093919 | 75 | 164 | 0.0 | 0.0 | 0.00 | 0.00 | 0.00 | 96 | 1020.3 |
| 20260831093414 | 75 | 164 | 0.0 | 0.0 | 0.00 | 0.00 | 0.00 | 96 | 1020.3 |
| 20260831092911 | 75 | 164 | 0.0 | 0.0 | 0.00 | 0.00 | 0.00 | 96 | 1020.5 |
| 20260831092406 | 75 | 164 | 0.0 | 0.0 | 0.00 | 0.00 | 0.00 | 96 | 1020.3 |
| 20260831091901 | 75 | 164 | 0.0 | 0.0 | 0.00 | 0.00 | 0.00 | 96 | 1020.2 |
| 20260831091356 | 75 | 164 | 0.0 | 0.0 | 0.00 | 0.00 | 0.00 | 96 | 1020.2 |
| 20260831090852 | 75 | 164 | 0.0 | 0.0 | 0.00 | 0.00 | 0.00 | 96 | 1020.2 |
| 20260831090348 | 75 | 164 | 0.0 | 0.0 | 0.00 | 0.00 | 0.00 | 96 | 1019.9 |
| 20260831085845 | 75 | 164 | 0.0 | 0.0 | 0.00 | 0.00 | 0.00 | 96 | 1020.1 |
| 20260831085344 | 75 | 164 | 0.0 | 0.0 | 0.00 | 0.00 | 0.00 | 96 | 1020.0 |
| 20260831084838 | 75 | 164 | 0.0 | 0.0 | 0.00 | 0.00 | 0.00 | 96 | 1020.2 |
| 20260831084335 | 75 | 164 | 0.0 | 0.0 | 0.00 | 0.00 | 0.00 | 96 | 1020.1 |
| 20260831083831 | 75 | 164 | 0.0 | 0.0 | 0.00 | 0.00 | 0.00 | 96 | 1019.9 |
| 20260831083326 | 75 | 164 | 0.0 | 0.0 | 0.00 | 0.00 | 0.00 | 96 | 1020.0 |
| 20260831082825 | 75 | 164 | 0.0 | 0.0 | 0.00 | 0.00 | 0.00 | 96 | 1020.2 |
| 20260831082320 | 75 | 164 | 0.0 | 0.0 | 0.00 | 0.00 | 0.00 | 96 | 1020.0 |
| 20260831081816 | 75 | 164 | 0.0 | 0.0 | 0.00 | 0.00 | 0.00 | 96 | 1020.1 |
| 20260831081312 | 75 | 164 | 0.0 | 0.0 | 0.00 | 0.00 | 0.00 | 96 | 1020.1 |
| 20260831080807 | 75 | 164 | 0.0 | 0.0 | 0.00 | 0.00 | 0.00 | 96 | 1020.2 |
| 20260831080302 | 75 | 164 | 0.0 | 0.0 | 0.00 | 0.00 | 0.00 | 96 | 1020.2 |
| 20260831075757 | 75 | 164 | 0.0 | 0.0 | 0.00 | 0.00 | 0.00 | 96 | 1020.3 |
| 20260831075253 | 75 | 164 | 0.0 | 0.0 | 0.00 | 0.00 | 0.00 | 96 | 1020.4 |
| 20260831074752 | 75 | 164 | 0.0 | 0.0 | 0.00 | 0.00 | 0.00 | 96 | 1020.3 |
| 20260831074246 | 75 | 164 | 0.0 | 0.0 | 0.00 | 0.00 | 0.00 | 96 | 1020.2 |
| 20260831073742 | 75 | 165 | 0.0 | 0.0 | 0.00 | 0.00 | 0.00 | 96 | 1020.1 |
| 20260831073235 | 75 | 165 | 0.0 | 0.0 | 0.00 | 0.00 | 0.00 | 96 | 1020.4 |
| 20260831072730 | 75 | 164 | 0.0 | 0.0 | 0.00 | 0.00 | 0.00 | 96 | 1020.4 |
| 20260831072227 | 75 | 165 | 0.0 | 0.0 | 0.00 | 0.00 | 0.00 | 96 | 1020.5 |
| 20260831071726 | 75 | 165 | 0.0 | 0.0 | 0.00 | 0.00 | 0.00 | 96 | 1020.5 |
| 20260831071221 | 75 | 165 | 0.0 | 0.0 | 0.00 | 0.00 | 0.00 | 96 | 1020.3 |
| 20260831070720 | 76 | 165 | 0.0 | 0.0 | 0.00 | 0.00 | 0.00 | 96 | 1020.5 |
| 20260831070215 | 76 | 165 | 0.0 | 0.0 | 0.00 | 0.00 | 0.00 | 96 | 1020.5 |
| 20260831065714 | 75 | 165 | 0.0 | 0.0 | 0.00 | 0.00 | 0.00 | 96 | 1020.6 |
| 20260831065212 | 76 | 165 | 0.0 | 0.0 | 0.00 | 0.00 | 0.00 | 96 | 1020.5 |
| 20260831064707 | 76 | 165 | 0.0 | 0.0 | 0.00 | 0.00 | 0.00 | 96 | 1020.6 |
| 20260831064202 | 76 | 165 | 0.0 | 0.0 | 0.00 | 0.00 | 0.00 | 96 | 1020.5 |
| 20260831063658 | 76 | 165 | 0.0 | 0.0 | 0.00 | 0.00 | 0.00 | 96 | 1020.9 |
| 20260831063148 | 76 | 165 | 0.0 | 0.0 | 0.00 | 0.00 | 0.00 | 96 | 1020.7 |
| 20260831062642 | 76 | 165 | 0.0 | 0.0 | 0.00 | 0.00 | 0.00 | 96 | 1020.8 |
| 20260831062142 | 76 | 165 | 0.0 | 0.0 | 0.00 | 0.00 | 0.00 | 96 | 1020.7 |
| 20260831061640 | 76 | 165 | 0.0 | 0.0 | 0.00 | 0.00 | 0.00 | 96 | 1020.7 |
| 20260831061136 | 76 | 165 | 0.0 | 0.0 | 0.00 | 0.00 | 0.00 | 96 | 1020.6 |
| 20260831060632 | 76 | 165 | 0.0 | 0.0 | 0.00 | 0.00 | 0.00 | 96 | 1020.6 |
| 20260831060126 | 76 | 164 | 0.0 | 0.0 | 0.00 | 0.00 | 0.00 | 96 | 1020.9 |
| 20260831055626 | 76 | 165 | 0.0 | 0.0 | 0.00 | 0.00 | 0.00 | 96 | 1020.8 |
| 20260831055121 | 76 | 165 | 0.0 | 0.0 | 0.00 | 0.00 | 0.00 | 96 | 1020.9 |
| 20260831054620 | 76 | 165 | 0.0 | 0.0 | 0.00 | 0.00 | 0.00 | 96 | 1020.7 |
| 20260831054115 | 76 | 165 | 0.0 | 0.0 | 0.00 | 0.00 | 0.00 | 96 | 1021.2 |
| 20260831053614 | 77 | 165 | 0.0 | 0.0 | 0.00 | 0.00 | 0.00 | 96 | 1021.1 |
| 20260831053108 | 77 | 165 | 0.0 | 0.0 | 0.00 | 0.00 | 0.00 | 96 | 1020.8 |
| 20260831052606 | 77 | 165 | 0.0 | 0.0 | 0.00 | 0.00 | 0.00 | 96 | 1021.2 |
| 20260831052101 | 77 | 165 | 0.0 | 0.0 | 0.00 | 0.00 | 0.00 | 96 | 1020.9 |
| 20260831051559 | 77 | 165 | 0.0 | 0.0 | 0.00 | 0.00 | 0.00 | 96 | 1021.0 |
| 20260831051058 | 77 | 164 | 0.0 | 0.0 | 0.00 | 0.00 | 0.00 | 96 | 1020.9 |
| 20260831050558 | 77 | 164 | 0.0 | 0.0 | 0.00 | 0.00 | 0.00 | 96 | 1021.1 |
| 20260831050056 | 77 | 164 | 0.0 | 0.0 | 0.00 | 0.00 | 0.00 | 96 | 1021.1 |
| 20260831045556 | 77 | 164 | 0.0 | 0.0 | 0.00 | 0.00 | 0.00 | 96 | 1021.0 |
| 20260831045052 | 77 | 164 | 0.0 | 0.0 | 0.00 | 0.00 | 0.00 | 95 | 1020.9 |
| 20260831044548 | 77 | 164 | 0.0 | 0.0 | 0.00 | 0.00 | 0.00 | 95 | 1021.0 |
| 20260831044043 | 77 | 164 | 0.0 | 0.0 | 0.00 | 0.00 | 0.00 | 95 | 1020.9 |
| 20260831043537 | 77 | 164 | 0.0 | 0.0 | 0.00 | 0.00 | 0.00 | 95 | 1021.0 |
| 20260831043033 | 77 | 164 | 0.0 | 0.0 | 0.00 | 0.00 | 0.00 | 95 | 1021.0 |
| 20260831042532 | 77 | 165 | 0.0 | 0.0 | 0.00 | 0.00 | 0.00 | 95 | 1021.0 |
| 20260831042027 | 77 | 164 | 0.0 | 0.0 | 0.00 | 0.00 | 0.00 | 95 | 1021.1 |
| 20260831041522 | 77 | 164 | 0.0 | 0.0 | 0.00 | 0.00 | 0.00 | 95 | 1021.0 |
| 20260831041021 | 77 | 164 | 0.0 | 0.0 | 0.00 | 0.00 | 0.00 | 95 | 1020.8 |
| 20260831040516 | 77 | 164 | 0.0 | 0.0 | 0.00 | 0.00 | 0.00 | 95 | 1020.8 |
| 20260831040015 | 77 | 164 | 0.0 | 0.0 | 0.00 | 0.00 | 0.00 | 95 | 1021.0 |
| 20260831035508 | 77 | 164 | 0.0 | 0.0 | 0.00 | 0.00 | 0.00 | 95 | 1020.7 |
| 20260831035003 | 78 | 164 | 0.0 | 0.0 | 0.00 | 0.00 | 0.00 | 94 | 1021.3 |
| 20260831034456 | 78 | 164 | 0.0 | 0.0 | 0.00 | 0.00 | 0.00 | 94 | 1021.0 |
| 20260831033952 | 78 | 164 | 0.0 | 0.0 | 0.00 | 0.00 | 0.00 | 94 | 1021.2 |
| 20260831033447 | 78 | 165 | 0.0 | 0.0 | 0.00 | 0.00 | 0.00 | 94 | 1021.2 |
| 20260831032943 | 78 | 165 | 0.0 | 0.0 | 0.00 | 0.00 | 0.00 | 94 | 1021.4 |
| 20260831032437 | 78 | 165 | 0.0 | 0.0 | 0.00 | 0.00 | 0.00 | 94 | 1021.2 |
| 20260831031932 | 78 | 165 | 0.0 | 0.0 | 0.00 | 0.00 | 0.00 | 94 | 1021.2 |
| 20260831031426 | 78 | 165 | 0.0 | 0.0 | 0.00 | 0.00 | 0.00 | 94 | 1021.3 |
| 20260831030920 | 78 | 165 | 0.0 | 0.0 | 0.00 | 0.00 | 0.00 | 94 | 1021.3 |
| 20260831030419 | 78 | 165 | 0.0 | 0.0 | 0.00 | 0.00 | 0.00 | 94 | 1021.5 |
| 20260831025918 | 78 | 165 | 0.0 | 0.0 | 0.00 | 0.00 | 0.00 | 94 | 1021.4 |
| 20260831025417 | 78 | 164 | 0.0 | 0.0 | 0.00 | 0.00 | 0.00 | 94 | 1021.5 |
| 20260831024914 | 78 | 164 | 0.0 | 0.0 | 0.00 | 0.00 | 0.00 | 94 | 1021.4 |
| 20260831024413 | 78 | 164 | 0.0 | 0.0 | 0.00 | 0.00 | 0.00 | 93 | 1021.4 |
| 20260831023908 | 78 | 164 | 0.0 | 0.0 | 0.00 | 0.00 | 0.00 | 94 | 1021.7 |
| 20260831023406 | 78 | 164 | 0.0 | 0.0 | 0.00 | 0.00 | 0.00 | 93 | 1021.5 |
| 20260831022902 | 79 | 164 | 0.0 | 0.0 | 0.00 | 0.00 | 0.00 | 93 | 1021.6 |
| 20260831022400 | 79 | 165 | 0.0 | 0.0 | 0.00 | 0.00 | 0.00 | 93 | 1021.4 |
| 20260831021855 | 79 | 164 | 0.0 | 0.0 | 0.00 | 0.00 | 0.00 | 93 | 1021.3 |
| 20260831021354 | 79 | 164 | 0.0 | 0.0 | 0.00 | 0.00 | 0.00 | 93 | 1021.4 |
| 20260831020850 | 79 | 164 | 0.0 | 0.0 | 0.00 | 0.00 | 0.00 | 92 | 1021.2 |
| 20260831020344 | 79 | 164 | 0.0 | 0.0 | 0.00 | 0.00 | 0.00 | 92 | 1021.5 |
| 20260831015840 | 79 | 164 | 0.0 | 0.0 | 0.00 | 0.00 | 0.00 | 92 | 1021.5 |
| 20260831015335 | 79 | 164 | 0.0 | 0.0 | 0.00 | 0.00 | 0.00 | 92 | 1021.6 |
| 20260831014830 | 80 | 164 | 0.0 | 0.0 | 0.00 | 0.00 | 0.00 | 91 | 1021.6 |
| 20260831014324 | 80 | 164 | 0.0 | 0.0 | 0.00 | 0.00 | 0.00 | 91 | 1021.6 |
| 20260831013820 | 80 | 164 | 0.0 | 0.0 | 0.00 | 0.00 | 0.00 | 91 | 1021.6 |
| 20260831013320 | 80 | 164 | 0.0 | 0.0 | 0.00 | 0.00 | 0.00 | 90 | 1021.8 |
| 20260831012815 | 80 | 154 | 0.0 | 0.0 | 0.00 | 0.00 | 0.00 | 90 | 1021.7 |
| 20260831012310 | 80 | 153 | 0.0 | 0.0 | 0.00 | 0.00 | 0.00 | 90 | 1021.5 |
| 20260831011809 | 80 | 155 | 0.0 | 0.0 | 0.00 | 0.00 | 0.00 | 90 | 1021.6 |
| 20260831011304 | 81 | 147 | 0.0 | 0.0 | 0.00 | 0.00 | 0.00 | 90 | 1021.4 |
| 20260831010800 | 81 | 148 | 0.0 | 0.0 | 0.00 | 0.00 | 0.00 | 89 | 1021.3 |
| 20260831010255 | 81 | 152 | 0.0 | 0.0 | 0.00 | 0.00 | 0.00 | 89 | 1021.4 |
| 20260831005751 | 81 | 152 | 0.0 | 0.0 | 0.00 | 0.00 | 0.00 | 89 | 1021.5 |
| 20260831005246 | 81 | 152 | 0.0 | 0.0 | 0.00 | 0.00 | 0.00 | 89 | 1021.5 |
| 20260831004741 | 81 | 153 | 0.0 | 0.0 | 0.00 | 0.00 | 0.00 | 89 | 1021.1 |
| 20260831004237 | 81 | 156 | 0.0 | 0.0 | 0.00 | 0.00 | 0.00 | 88 | 1021.4 |
| 20260831003732 | 81 | 152 | 0.0 | 0.0 | 0.00 | 0.00 | 0.00 | 88 | 1020.9 |
| 20260831003229 | 81 | 144 | 0.0 | 0.0 | 0.00 | 0.00 | 0.00 | 88 | 1021.1 |
| 20260831002728 | 81 | 147 | 0.0 | 0.0 | 0.00 | 0.00 | 0.00 | 87 | 1021.0 |
| 20260831002227 | 81 | 154 | 0.0 | 0.0 | 0.00 | 0.00 | 0.00 | 87 | 1021.1 |
| 20260831001723 | 81 | 150 | 0.0 | 0.0 | 0.00 | 0.00 | 0.00 | 86 | 1021.2 |
| 20260831001218 | 81 | 152 | 0.0 | 0.0 | 0.00 | 0.00 | 0.00 | 86 | 1021.1 |
| 20260831000715 | 81 | 123 | 0.0 | 0.0 | 0.00 | 0.00 | 0.00 | 86 | 1021.1 |
| 20260831000211 | 81 | 150 | 0.0 | 0.0 | 0.00 | 0.00 | 0.00 | 86 | 1021.2 |
| 20260830235709 | 82 | 145 | 0.0 | 0.0 | 0.00 | 0.00 | 0.00 | 85 | 1021.2 |
| 20260830235204 | 82 | 150 | 0.0 | 0.0 | 0.00 | 0.00 | 0.00 | 85 | 1020.8 |
| 20260830234659 | 82 | 148 | 0.0 | 0.0 | 0.00 | 0.00 | 0.00 | 84 | 1020.8 |
| 20260830234154 | 82 | 151 | 0.0 | 0.0 | 0.00 | 0.00 | 0.00 | 84 | 1021.0 |
| 20260830233650 | 82 | 157 | 0.0 | 0.0 | 0.00 | 0.00 | 0.00 | 84 | 1020.9 |
| 20260830233145 | 82 | 143 | 0.0 | 0.0 | 0.00 | 0.00 | 0.00 | 83 | 1020.9 |
| 20260830232641 | 82 | 150 | 0.0 | 0.0 | 0.00 | 0.00 | 0.00 | 84 | 1020.8 |
| 20260830232137 | 82 | 146 | 0.0 | 0.0 | 0.00 | 0.00 | 0.00 | 84 | 1020.6 |
| 20260830231633 | 82 | 120 | 0.0 | 0.0 | 0.00 | 0.00 | 0.00 | 83 | 1020.7 |